Location: DARK SKY Beskydy - Park tmavé oblohy, www.darkskybeskydy.cz
(49.4926°N, 18.5016°E)
Time: 14:36:34
(UTC+01:00)

Vanguard 1 - Pass Details

Date: 16 November 2025
Orbit: 650 x 3821 km, 34.2° (Epoch: 07 December)

Event Time Altitude Azimuth Distance (km) Brightness Sun altitude
Rises 16:07:05 0° 227° (SW) 6,636 16.3 -1.5°
Reaches altitude 10° 16:11:17 10° 221° (SW) 5,967 15.5 -2.1°
Maximum altitude 16:29:48 45° 158° (SSE) 4,599 13.5 -4.9°
Drops below altitude 10° 16:50:19 10° 96° (E) 6,583 13.7 -7.9°
Enters shadow 16:53:16 - 92° (E) 7,034 13.8 -8.4°
